Find Kosmos-712

NORAD ID: 7679 Int'l Des: 1975-016 Owner: GUKOSR Country: SU operational
LEOCIRCULAR

实时位置

正在加载3D地球...

关于 Kosmos-712

正在加载描述...

即将过境

Passes for default location (London). Set your location on the main map for personalized predictions.

高度历史

Loading altitude history...

两行轨道根数

1 7679U 75016B 26121.10022735 .00000014 00000-0 19215-3 0 9996
2 7679 74.0034 185.3835 0050423 344.5182 32.9415 12.53464648341356
Epoch: May 1, 2026 • Age: 7 hours

当前状态

高度 1482.0 km
速度 7.12 km/s
星下点 -53.74°S, 28.74°E
类型 other

Most Searched